Location: Fort Wayne
(41.1310°N, 85.1290°W)
Time: 21:57:50
(UTC-04:00)

OPAL - Visible Passes

Search period start: 17 October 2017 00:00
Search period end: 27 October 2017 00:00
Orbit: 744 x 795 km, 100.2° (Epoch: 17 October)

Date Brightness Start Highest point End Pass type
(mag) Time Alt. Az. Time Alt. Az. Time Alt. Az.
17 Oct 7.4 20:07:43 10° SSE 20:12:41 66° ENE 20:17:45 10° N visible
17 Oct 10.3 21:49:18 10° SW 21:52:01 14° W 21:54:45 10° WNW visible
18 Oct 8.3 19:33:01 10° SE 19:37:24 31° ENE 19:41:51 10° N visible
18 Oct 9.2 21:11:43 10° SSW 21:16:12 32° W 21:20:45 10° NW visible
19 Oct 7.7 20:35:34 10° S 20:40:34 71° WSW 20:45:42 10° NNW visible
20 Oct 7.6 20:00:16 10° SE 20:05:09 53° ENE 20:10:08 10° N visible
20 Oct 10.0 21:40:54 10° SW 21:44:20 18° W 21:47:49 10° NW visible
21 Oct 8.5 19:25:49 10° ESE 19:29:56 26° ENE 19:34:07 10° N visible
21 Oct 8.8 21:03:51 10° S 21:08:34 40° W 21:13:22 10° NNW visible
22 Oct 7.5 20:27:57 10° SSE 20:33:00 88° WSW 20:38:10 10° NNW visible
23 Oct 7.8 19:52:52 10° SE 19:57:39 43° ENE 20:02:29 10° N visible
23 Oct 9.7 21:32:43 10° SSW 21:36:40 23° W 21:40:40 10° NW visible
24 Oct 8.7 19:18:42 10° ESE 19:22:29 21° ENE 19:26:18 10° NNE visible
24 Oct 8.3 20:56:04 10° S 21:00:58 50° WSW 21:05:58 10° NNW visible
25 Oct 7.4 20:20:24 10° SSE 20:25:27 76° ENE 20:30:37 10° NNW visible
25 Oct 10.4 22:02:42 10° WSW 22:04:52 13° W 22:07:03 10° WNW visible
26 Oct 8.1 19:45:33 10° SE 19:50:08 35° ENE 19:54:49 10° N visible
26 Oct 9.4 21:24:41 10° SSW 21:29:01 28° W 21:33:26 10° NW visible
